Location: Cosy Dell
(34.2789°N, 117.4537°W)
Time: 19:46:05
(UTC+00:00)

CZ-4C R/B - Pass Details

Date: 25 October 2020
Orbit: 623 x 1378 km, 63.4° (Epoch: 03 December)

Event Time Altitude Azimuth Distance (km) Brightness Sun altitude
Rises 04:19:35 0° 341° (NNW) 3,854 6.0 -40.8°
Reaches altitude 10° 04:22:57 10° 357° (N) 3,029 5.2 -41.5°
Enters shadow 04:23:08 11° 359° (N) 2,990 5.1 -41.5°
